Regional Weather Roundup
Issued by NWS Midland/Odessa, TX

Current Version | Previous Version | Text Only | Print | Product List | Glossary On
Versions: 1 2 3 4 5 6 7 8 9 10 11 12 13 14 15 16 17 18 19 20 21 22 23 24 25 26 27 28 29 30 31 32 33 34 35 36 37 38 39 40 41 42 43 44 45 46 47 48 49 50
000
ASUS44 KMAF 231310
RWRMAF
MIDLAND AREA WEATHER ROUNDUP
NATIONAL WEATHER SERVICE MIDLAND TX
800 AM CDT MON SEP 23 2019

...IN SOUTHWEST TEXAS AND SOUTHEAST NEW MEXICO...

CITY           SKY/WX    TMP DP  RH WIND       PRES   REMARKS
ALPINE         PTCLDY    67  63  85 W9        30.23S
ANDREWS        FAIR      69  69 100 CALM      30.11R
ARTESIA        CLEAR     63  61  94 CALM      30.13R
BIG SPRING     PTCLDY    71  68  90 CALM      30.12R
CARLSBAD       CLEAR     63  60  90 W5        30.09R
DRYDEN           N/A     72  62  71 N5        30.04R
FORT STOCKTON  MOCLDY    69  66  90 S9        30.08R
GUAD PASS      CLEAR     62  60  93 W9        30.24R
HOBBS          CLEAR     66  64  94 CALM      30.13R
LAMESA         NOT AVBL
MARFA          CLEAR     62  61  96 CALM      30.22S
MIDLAND AIRPK  CLOUDY    72  68  87 E3        30.09R
MIDLAND INTL   PTCLDY    71  70  96 E6        30.09R
ODESSA         CLEAR     69  67  93 E7        30.10R
PECOS          CLEAR     69  67  93 CALM      30.06S
PRESIDIO       FAIR      70  68  93 E3        30.12S
SEMINOLE       CLEAR     66  66 100 CALM      30.16R FOG
SNYDER         MOCLDY    71  71 100 W6        30.10R
WINK           MOCLDY    72  69  90 NE3       30.06R
$$
...OTHER STATIONS IN TEXAS...

CITY           SKY/WX    TMP DP  RH WIND       PRES   REMARKS
ABILENE        MOCLDY    76  65  68 SW3       30.07R
AMARILLO       CLEAR     59  57  93 SE10      30.13R
AUSTIN         MOCLDY    78  76  93 S3        30.04S
BROWNSVILLE    FAIR      78  74  87 CALM      29.98R
CORPUS CHRISTI PTCLDY    77  76  96 CALM      29.99R
DALLAS FTW     MOCLDY    78  72  81 S9        30.03R
DEL RIO        NOT AVBL
EL PASO        PTCLDY    70  61  73 S7        30.13R
HOUSTON INT    PTCLDY    77  75  93 N3        30.04R
LUBBOCK        MOCLDY    65  64  97 SE7       30.13R FOG
SAN ANGELO     CLEAR     75  68  78 S5        30.06R
SAN ANTONIO    MOCLDY    78  74  87 S5        30.05R
WACO           PTCLDY    78  74  87 S9        30.04R
WICHITA FALLS  PTCLDY    59  57  93 CALM      30.09R
$$
...OTHER LOCATIONS IN NEW MEXICO...

CITY           SKY/WX    TMP DP  RH WIND       PRES   REMARKS
ALAMOGORDO     CLEAR     63  54  72 CALM      30.16R
ALBUQUERQUE    PTCLDY    54  24  31 W5        30.21R
CANNON AFB     CLEAR     59  58  96 CALM      30.18R
CLOVIS         CLEAR     57  55  93 W3        30.17R
HOLLOMAN AFB   CLEAR     65  55  69 SE5       30.17R
ROSWELL        CLEAR     60  51  72 N3        30.11R
RUIDOSO        CLEAR     54  48  82 W5        30.32
SANTA FE       CLEAR     46  20  35 NE10      30.26R
TRUTH OR CONSE CLEAR     62  41  46 W5        30.17R
TUCUMCARI      CLEAR     56  53  90 N8        30.12R
$$



USA.gov is the U.S. government's official web portal to all federal, state and local government web resources and services.